Weather History for Mount Holly, NJ

Change the Weather History Date:

Thursday, April 10, 2014

  Actual Average (KWRI) Record (KWRI)
Temperature  
Mean Temperature 50 °F -  
Max Temperature 66 °F 59 °F 88 °F (2013)
Min Temperature 34 °F 39 °F 28 °F (1997)
Degree Days  
Heating Degree Days 15    
Moisture  
Dew Point 30 °F    
Average Humidity 48    
Maximum Humidity 82    
Minimum Humidity 27    
Precipitation  
Precipitation 0.00 in - - ()
Sea Level Pressure  
Sea Level Pressure 30.13 in    
Wind  
Wind Speed 5 mph (South)    
Max Wind Speed 12 mph    
Max Gust Speed 22 mph    
Visibility 10 miles    
Events      
Averages and records for this station are not official NWS values.
T = Trace of Precipitation, MM = Missing Value Source: NWS Daily Summary

Daily Weather History Graph

Daily Weather History Graph

Search for Another Location

Airport:

Trip Planner

Search our weather history database for the weather conditions in past years. The results will help you decide how hot, cold, wet, or windy it might be!

Date:

Astronomy

Apr. 10, 2014 Rise Set
Actual Time 6:29 AM EDT 7:32 PM EDT
Civil Twilight 6:01 AM EDT 8:00 PM EDT
Nautical Twilight 5:28 AM EDT 8:33 PM EDT
Astronomical Twilight 4:54 AM EDT 9:08 PM EDT
Moon 3:14 PM EDT (4/10) 3:50 AM EDT (4/10)
Length of Visible Light 13h 58m
Length of Day
13h 03m
Waxing Gibbous, 79% of the Moon is Illuminated
Apr 10
Waxing Gibbous
Apr 15
Full
Apr 22
Last Quarter
Apr 29
New
May 6
First Quarter

Hourly Weather History & Observations

Time (EDT) Temp. Windchill Dew Point Humidity Pressure Visibility Wind Dir Wind Speed Gust Speed Precip Events Conditions
12:54 AM 42.1 °F 39.2 °F 30.0 °F 62% 30.06 in 10.0 mi North 4.6 mph - N/A   Clear
1:54 AM 39.0 °F - 30.9 °F 73% 30.08 in 10.0 mi Calm Calm - N/A   Clear
2:54 AM 37.0 °F - 30.9 °F 79% 30.10 in 10.0 mi Calm Calm - N/A   Clear
3:54 AM 35.1 °F 32.2 °F 30.0 °F 82% 30.11 in 10.0 mi South 3.5 mph - N/A   Clear
4:54 AM 34.0 °F - 28.9 °F 82% 30.13 in 10.0 mi Calm Calm - N/A   Clear
5:54 AM 35.1 °F - 28.9 °F 78% 30.16 in 10.0 mi Calm Calm - N/A   Clear
6:54 AM 34.0 °F - 28.9 °F 82% 30.18 in 10.0 mi Calm Calm - N/A   Clear
7:54 AM 43.0 °F 41.3 °F 30.0 °F 60% 30.20 in 10.0 mi SSE 3.5 mph - N/A   Clear
8:54 AM 48.9 °F - 28.0 °F 44% 30.22 in 10.0 mi South 4.6 mph - N/A   Clear
9:54 AM 53.1 °F - 27.0 °F 37% 30.23 in 10.0 mi South 5.8 mph - N/A   Clear
10:54 AM 57.0 °F - 28.0 °F 33% 30.23 in 10.0 mi South 8.1 mph - N/A   Clear
11:54 AM 60.1 °F - 28.9 °F 31% 30.21 in 10.0 mi SSW 11.5 mph 16.1 mph N/A   Clear
12:54 PM 62.1 °F - 30.0 °F 30% 30.17 in 10.0 mi SW 10.4 mph - N/A   Clear
1:54 PM 64.0 °F - 30.9 °F 29% 30.14 in 10.0 mi SW 9.2 mph 17.3 mph N/A   Clear
2:54 PM 64.9 °F - 30.0 °F 27% 30.13 in 10.0 mi SSW 10.4 mph - N/A   Clear
3:54 PM 66.0 °F - 32.0 °F 28% 30.10 in 10.0 mi SSW 11.5 mph 19.6 mph N/A   Clear
4:54 PM 66.0 °F - 32.0 °F 28% 30.08 in 10.0 mi SW 10.4 mph 21.9 mph N/A   Clear
5:54 PM 63.0 °F - 33.1 °F 33% 30.08 in 10.0 mi South 8.1 mph 19.6 mph N/A   Clear
6:54 PM 61.0 °F - 33.1 °F 35% 30.08 in 10.0 mi South 8.1 mph 19.6 mph N/A   Clear
7:54 PM 57.0 °F - 33.1 °F 40% 30.08 in 10.0 mi SSE 6.9 mph - N/A   Clear
8:54 PM 55.0 °F - 32.0 °F 42% 30.08 in 10.0 mi South 9.2 mph - N/A   Clear
9:54 PM 54.0 °F - 30.9 °F 41% 30.07 in 10.0 mi South 6.9 mph - N/A   Clear
10:54 PM 55.9 °F - 30.0 °F 37% 30.05 in 10.0 mi South 9.2 mph - N/A   Clear
11:54 PM 55.9 °F - 32.0 °F 40% 30.05 in 10.0 mi Variable 5.8 mph - N/A   Clear